Regional Weather Roundup
Issued by NWS

Home | Current Version | Previous Version | Graphics & Text | Print | Product List | Glossary On
Versions: 1 2 3 4 5 6 7 8 9 10 11 12 13 14 15 16 17 18 19 20 21 22 23 24 25 26 27
000
ASUS45 KTFX 300410
RWRMT
MONTANA REGIONAL WEATHER ROUNDUP
NATIONAL WEATHER SERVICE GREAT FALLS MT
1000 PM MDT SUN MAY 29 2016

NOTE: "FAIR" INDICATES FEW OR NO CLOUDS BELOW 12000 FEET WITH NO
SIGNIFICANT WEATHER AND/OR OBSTRUCTIONS TO VISIBILITY.

MTZ001>007-043-300500-
WEST OF THE DIVIDE

CITY           SKY/WX    TMP DP  RH WIND       PRES   REMARKS
KALISPELL      CLEAR     55  44  66 S6        29.93R
MISSOULA       PTCLDY    54  46  74 E8        30.01R
BUTTE          CLOUDY    56  35  45 NE3       30.05R
MULLAN PASS    PTCLDY    45  33  63 VRB7G18   30.06R
ANACONDA         N/A     52  41  66 NW6       30.04R
DEER LODGE       N/A     52  43  71 W5        30.04R
EUREKA           N/A     52  43  71 N15G24    29.99R
HAMILTON         N/A     55  45  67 NE7       30.02R
LIBBY            N/A     57  43  58 CALM      29.95R
$$

MTZ008-052>055-300500-
SOUTHWEST MONTANA

CITY           SKY/WX    TMP DP  RH WIND       PRES   REMARKS
BOZEMAN        MOCLDY    61  39  44 S9        29.97R
DILLON         MOCLDY    58  35  42 S5        29.98R
W YELLOWSTONE  CLOUDY    54  32  43 CALM      30.09S
ENNIS          MOCLDY    59  34  38 VRB7      30.07R
$$

MTZ009-010-012-014-046-048-049-054-300500-
EAST SLOPES AND CENTRAL MONTANA

CITY           SKY/WX    TMP DP  RH WIND       PRES   REMARKS
CUT BANK         N/A     51  39  63 SW10      29.93S
GREAT FALLS    CLOUDY    53  42  66 NE3       29.97S
MALMSTROM AFB  MOCLDY    57  42  57 N2        29.96S
HELENA         PTCLDY    57  44  62 W10       29.99R
CHOTEAU          N/A     54  45  71 W5        29.98S
$$

MTZ011-013-016-021-045-047-050-051-300500-
NORTH CENTRAL MONTANA

CITY           SKY/WX    TMP DP  RH WIND       PRES   REMARKS
HAVRE          CLOUDY    54  48  80 SE7       29.91F
LEWISTOWN      CLOUDY    59  44  57 S5        29.99R
N BAR RANCH    MOCLDY    55  39  54 CALM      30.02R
CHINOOK          N/A     61  45  55 SW5       29.92R
$$

MTZ017>020-022>027-061-062-300500-
NORTHEAST MONTANA

CITY           SKY/WX    TMP DP  RH WIND       PRES   REMARKS
GLASGOW        CLEAR     64  41  42 N5        29.90S
JORDAN           N/A     57  45  64 MISG      29.93R
SIDNEY         CLEAR     56  43  61 N5        29.93S
WOLF POINT     CLEAR     54  43  66 CALM      29.92R
POPLAR           N/A     63  43  48 SE5       29.92R
$$

MTZ028>42-056>058-300500-
SOUTHCENTRAL AND SOUTHEAST MONTANA

CITY           SKY/WX    TMP DP  RH WIND       PRES   REMARKS
BAKER          CLEAR     52  44  74 SE5       29.97S
BILLINGS       PTCLDY    65  44  46 NE7       29.92F
LIVINGSTON     CLOUDY    58  40  51 S7        29.96R
MILES CITY     CLEAR     67  43  41 E8        29.92S
FORSYTH          N/A     64  48  55 E5        29.91S
$$

REGIONAL REPORTS...DAKOTAS

CITY           SKY/WX    TMP DP  RH WIND       PRES   REMARKS
WILLISTON      CLEAR     55  43  63 CALM      29.93R
MINOT          CLEAR     66  43  43 CALM      29.92R
DICKINSON      PTCLDY    55  43  63 SE8       29.94S
BEACH            N/A     54  41  62 CALM      29.99S
CROSBY           N/A     54  48  82 W7        29.94S
WATFORD CITY     N/A     57  41  54 CALM      29.95R
BISMARCK       CLEAR     62  50  64 CALM      29.95R
GRAND FORKS    CLEAR     58  50  75 SW6       29.91S
FARGO          CLEAR     61  50  67 CALM      29.93R
BUFFALO SD       N/A     60  51  72 SE10      29.93R
RAPID CITY     CLEAR     61  53  75 E9        29.98S
$$

REGIONAL REPORTS...WYOMING/IDAHO/WASHINGTON

CITY           SKY/WX    TMP DP  RH WIND       PRES   REMARKS
GILLETTE       CLEAR     49  42  77 SW3       29.98S
SHERIDAN       CLOUDY    57  49  74 SW3       29.96R
BUFFALO WY     CLOUDY    55  42  61 W9        30.01R
CODY           CLOUDY    59  36  41 CALM      29.99R
YELLOWSTONE LA   N/A     44  32  62 CALM      30.17F
IDAHO FALLS    CLOUDY    59  41  51 SW12      30.04R
SALMON         CLOUDY    57  32  38 S6        29.94R
BOISE          CLEAR     73  32  22 N3        29.94R
SPOKANE        PTCLDY    59  32  36 W12       30.00R
$$

REGIONAL REPORTS...ALBERTA

CITY           SKY/WX    TMP DP  RH WIND       PRES   REMARKS
EDMONTON       LGT RAIN  50  45  81 NW8       29.96R
CALGARY        LGT RAIN  46  41  81 NW17G26   29.96R
LETHBRIDGE     MOCLDY    54  43  66 W14       29.90R
MEDICINE HAT   PTCLDY    57  45  62 SW8       29.85R
WATERTON GATE    N/A     52  37  58 SW9         N/A
CARDSTON         N/A     54  37  54 NW7         N/A
MILK RIVER       N/A     52  41  66 SW7         N/A
$$

REGIONAL REPORTS...SASKATCHEWAN

CITY           SKY/WX    TMP DP  RH WIND       PRES   REMARKS
SWIFT CURRENT  MOCLDY    55  46  71 SW10      29.88R
SASKATOON      PTCLDY    55  50  82 NE13      29.90R
VAL MARIE        N/A     54  43  66 S5          N/A
ROCKGLEN         N/A     55  43  62 SW5         N/A
ASSINIBOIA       N/A     50  48  93 NE10        N/A
$$




USA.gov is the U.S. government's official web portal to all federal, state and local government web resources and services.